EW2561 Weather Reports


Display with metric or nautical units.
time (UTC)temp
F
wind
direction
speed
MPH
gust
MPH
rain 1hr
in
rain 24hr
in
rain mn
in
humidity
%
barometer
mb
20260502170335 67 23 0.0 0.0 0.09 0.11 0.11 92 1010.8
20260502163803 68 23 0.0 2.0 0.11 0.11 0.11 87 1011.0
20260502163231 68 136 0.0 2.0 0.11 0.11 0.11 86 1011.2
20260502162959 69 206 0.0 2.0 0.11 0.11 0.11 83 1011.4
20260502162232 70 115 0.0 2.0 0.10 0.10 0.10 82 1011.4
20260502161732 72 200 0.0 2.0 0.06 0.06 0.06 81 1011.5
20260502161231 73 61 0.0 2.0 0.06 0.06 0.06 74 1011.3
20260502160730 74 102 1.0 8.0 0.06 0.06 0.06 73 1011.5
20260502160237 75 250 1.0 8.0 0.02 0.02 0.01 68 1011.6
20260502152140 76 271 2.0 4.0 0.00 0.00 0.00 59 1011.8
20260502151903 77 275 1.0 4.0 0.00 0.00 0.00 54 1011.9
20260502151131 78 269 1.0 3.0 0.00 0.00 0.00 54 1012.0
20260502150630 79 93 1.0 3.0 0.00 0.00 0.00 51 1012.0
20260502150546 79 148 1.0 4.0 0.00 0.00 0.00 53 1012.2
20260502130330 76 129 2.0 7.0 0.00 0.00 0.00 57 1013.6
20260502123804 75 28 3.0 8.0 0.00 0.00 0.00 58 1013.8
20260502123232 76 281 3.0 8.0 0.00 0.00 0.00 57 1013.8
20260502122724 76 270 2.0 8.0 0.00 0.00 0.00 56 1014.0
20260502122204 76 230 2.0 6.0 0.00 0.00 0.00 57 1014.1
20260502122127 76 229 2.0 5.0 0.00 0.00 0.00 58 1014.2
20260502121131 76 139 2.0 7.0 0.00 0.00 0.00 58 1014.4
20260502120631 76 274 2.0 7.0 0.00 0.00 0.00 56 1014.4
20260502115530 76 181 2.0 4.0 0.00 0.00 0.00 56 1014.5
20260502115031 76 302 2.0 8.0 0.00 0.00 0.00 56 1014.6
20260502114532 76 237 2.0 8.0 0.00 0.00 0.00 55 1014.6
20260502114032 76 256 2.0 8.0 0.00 0.00 0.00 56 1014.7
20260502113531 76 131 2.0 8.0 0.00 0.00 0.00 55 1014.7
20260502113030 75 218 2.0 7.0 0.00 0.00 0.00 56 1014.7
20260502112536 76 281 2.0 7.0 0.00 0.00 0.00 57 1014.7
20260502112034 75 166 2.0 7.0 0.00 0.00 0.00 56 1014.8
20260502111528 75 326 3.0 8.0 0.00 0.00 0.00 57 1015.0
20260502111511 75 300 2.0 8.0 0.00 0.00 0.00 56 1015.0
20260502110522 75 235 3.0 4.0 0.00 0.00 0.00 57 1015.1
20260502105938 74 64 2.0 9.0 0.00 0.00 0.00 56 1015.0
20260502105659 74 139 2.0 4.0 0.00 0.00 0.00 57 1015.1
20260502104934 74 267 3.0 10.0 0.00 0.00 0.00 58 1015.1
20260502104432 74 316 3.0 10.0 0.00 0.00 0.00 57 1015.3
20260502103932 74 325 3.0 8.0 0.00 0.00 0.00 57 1015.4
20260502103430 73 282 3.0 8.0 0.00 0.00 0.00 58 1015.3
20260502102930 73 209 3.0 6.0 0.00 0.00 0.00 57 1015.4
20260502102402 73 229 2.0 6.0 0.00 0.00 0.00 58 1015.4
20260502102121 73 264 2.0 6.0 0.00 0.00 0.00 58 1015.5
20260502101330 73 294 2.0 6.0 0.00 0.00 0.00 58 1015.6
20260502100832 72 182 2.0 6.0 0.00 0.00 0.00 57 1015.6
20260502100332 72 63 2.0 6.0 0.00 0.00 0.00 57 1015.7
20260502091227 70 305 3.0 7.0 0.00 0.00 0.00 60 1016.0
20260502090706 70 292 2.0 8.0 0.00 0.00 0.00 59 1016.0
20260502090202 69 282 3.0 8.0 0.00 0.00 0.00 59 1016.0
20260502071432 63 278 1.0 3.0 0.00 0.00 0.00 68 1016.3
20260502070929 62 275 0.0 3.0 0.00 0.00 0.00 70 1016.3
20260502070404 62 212 0.0 3.0 0.00 0.00 0.00 71 1016.3
20260502065904 61 283 0.0 3.0 0.00 0.00 0.00 72 1016.4
20260502065844 60 138 0.0 3.0 0.00 0.00 0.00 75 1016.3
20260502064832 59 264 0.0 3.0 0.00 0.00 0.00 76 1016.4
20260502064333 58 87 0.0 1.0 0.00 0.00 0.00 80 1016.4
20260502063830 57 87 0.0 0.0 0.00 0.00 0.00 82 1016.4
20260502063310 56 87 0.0 0.0 0.00 0.00 0.00 85 1016.3
20260502062804 54 88 0.0 0.0 0.00 0.00 0.00 87 1016.3
20260502062306 53 87 0.0 0.0 0.00 0.00 0.00 89 1016.3
20260502061732 52 87 0.0 0.0 0.00 0.00 0.00 89 1016.2
20260502061231 52 87 0.0 0.0 0.00 0.00 0.00 90 1016.3
20260502060730 51 87 0.0 0.0 0.00 0.00 0.00 90 1016.3
20260502060231 51 87 0.0 0.0 0.00 0.00 0.00 91 1016.3
20260502055711 50 87 0.0 0.0 0.00 0.00 0.00 91 1016.2
20260502055204 50 87 0.0 0.0 0.00 0.00 0.00 91 1016.3
20260502054703 49 87 0.0 0.0 0.00 0.00 0.00 91 1016.2
20260502054436 49 87 0.0 0.0 0.00 0.00 0.00 92 1016.3
20260502053647 49 87 0.0 0.0 0.00 0.00 0.00 92 1016.2
20260502053358 48 87 0.0 0.0 0.00 0.00 0.00 93 1016.3
20260502052637 48 87 0.0 0.0 0.00 0.00 0.00 93 1016.3
20260502052136 48 87 0.0 0.0 0.00 0.00 0.00 93 1016.3
20260502051608 47 87 0.0 0.0 0.00 0.00 0.00 93 1016.3
20260502051107 47 87 0.0 0.0 0.00 0.00 0.00 93 1016.2
20260502050804 46 87 0.0 0.0 0.00 0.00 0.00 93 1016.2
20260502050031 46 87 0.0 0.0 0.00 0.00 0.00 93 1016.1
20260502045530 46 87 0.0 1.0 0.00 0.00 0.00 93 1016.1
20260502045032 45 87 0.0 1.0 0.00 0.00 0.00 93 1016.1
20260502044754 45 87 0.0 0.0 0.00 0.00 0.00 93 1016.1
20260502044032 45 87 0.0 0.0 0.00 0.00 0.00 93 1016.1
20260502043750 44 87 0.0 0.0 0.00 0.00 0.00 93 1016.2
20260502043030 44 87 0.0 0.0 0.00 0.00 0.00 93 1016.2
20260502042531 44 87 0.0 2.0 0.00 0.00 0.00 92 1016.2
20260502042026 44 87 0.0 2.0 0.00 0.00 0.00 92 1016.2
20260502041504 44 87 0.0 0.0 0.00 0.00 0.00 92 1016.3
20260502041226 44 87 0.0 0.0 0.00 0.00 0.00 92 1016.4
20260502040504 44 87 0.0 0.0 0.00 0.00 0.00 93 1016.5
20260502035932 44 87 0.0 0.0 0.00 0.00 0.00 93 1016.5
20260502035425 44 87 0.0 1.0 0.00 0.00 0.00 93 1016.5
20260502035123 44 87 0.0 1.0 0.00 0.00 0.00 93 1016.5
20260502034844 44 87 0.0 2.0 0.00 0.00 0.00 93 1016.5
20260502033903 43 87 0.0 2.0 0.00 0.00 0.00 92 1016.6
20260502033403 43 87 0.0 0.0 0.00 0.00 0.00 92 1016.5
20260502032902 43 87 0.0 0.0 0.00 0.00 0.00 92 1016.4
20260502032402 43 87 0.0 0.0 0.00 0.00 0.00 92 1016.4
20260502031833 43 87 0.0 0.0 0.00 0.00 0.00 92 1016.4
20260502031331 43 87 0.0 0.0 0.00 0.00 0.00 92 1016.4
20260502030824 43 87 0.0 0.0 0.00 0.00 0.00 92 1016.5
20260502030303 44 87 0.0 0.0 0.00 0.00 0.00 92 1016.5
20260502025802 44 87 0.0 0.0 0.00 0.00 0.00 92 1016.5
20260502025232 44 87 0.0 0.0 0.00 0.00 0.00 92 1016.6
20260502024731 44 87 0.0 0.0 0.00 0.00 0.00 91 1016.6
20260502024231 44 87 0.0 0.0 0.00 0.00 0.00 92 1016.7
20260502023711 44 87 0.0 0.0 0.00 0.00 0.00 91 1016.7
20260502023428 44 87 0.0 0.0 0.00 0.00 0.00 91 1016.6
20260502022630 44 87 0.0 0.0 0.00 0.00 0.00 91 1016.7
20260502022130 44 87 0.0 0.0 0.00 0.00 0.00 91 1016.7
20260502021603 44 87 0.0 0.0 0.00 0.00 0.00 91 1016.8
20260502021031 44 87 0.0 0.0 0.00 0.00 0.00 91 1016.8
20260502020756 44 87 0.0 0.0 0.00 0.00 0.00 91 1016.8
20260502020010 44 87 0.0 0.0 0.00 0.00 0.00 90 1016.9
20260502015730 44 87 0.0 0.0 0.00 0.00 0.00 90 1017.0
20260502014932 44 87 0.0 0.0 0.00 0.00 0.00 91 1017.0
20260502014430 44 87 0.0 0.0 0.00 0.00 0.00 90 1017.0
20260502013931 44 87 0.0 0.0 0.00 0.00 0.00 90 1017.1
20260502013431 44 87 0.0 0.0 0.00 0.00 0.00 90 1017.1
20260502012930 44 87 0.0 0.0 0.00 0.00 0.00 90 1017.2
20260502012430 45 87 0.0 0.0 0.00 0.00 0.00 90 1017.2
20260502011931 45 87 0.0 0.0 0.00 0.00 0.00 90 1017.2
20260502011437 45 87 0.0 0.0 0.00 0.00 0.00 90 1017.3
20260502010931 45 87 0.0 0.0 0.00 0.00 0.00 89 1017.3
20260502010431 45 87 0.0 0.0 0.00 0.00 0.00 89 1017.4
20260502010153 45 87 0.0 0.0 0.00 0.00 0.00 89 1017.3
20260502005432 45 87 0.0 0.0 0.00 0.00 0.00 89 1017.4
20260502005156 45 87 0.0 0.0 0.00 0.00 0.00 89 1017.4
20260502004430 46 87 0.0 0.0 0.00 0.00 0.00 89 1017.4
20260502003929 46 87 0.0 0.0 0.00 0.00 0.00 88 1017.4
20260502003403 46 87 0.0 0.0 0.00 0.00 0.00 88 1017.4
20260502002907 46 87 0.0 0.0 0.00 0.00 0.00 88 1017.4
20260502002404 46 87 0.0 0.0 0.00 0.00 0.00 88 1017.5
20260502001832 46 87 0.0 0.0 0.00 0.00 0.00 87 1017.6
20260502001331 46 87 0.0 0.0 0.00 0.00 0.00 87 1017.6
20260502000831 47 87 0.0 0.0 0.00 0.00 0.00 87 1017.7
20260502000332 47 87 0.0 0.0 0.00 0.00 0.00 87 1017.7
20260501235802 47 87 0.0 0.0 0.00 0.00 0.00 87 1017.7
20260501235740 47 87 0.0 0.0 0.00 0.00 0.00 86 1017.8
20260501234730 47 87 0.0 0.0 0.00 0.00 0.00 86 1017.9
20260501234231 47 87 0.0 0.0 0.00 0.00 0.00 86 1018.0
20260501233732 47 87 0.0 0.0 0.00 0.00 0.00 85 1018.0
20260501233229 48 87 0.0 0.0 0.00 0.00 0.00 85 1018.1
20260501232730 48 87 0.0 0.0 0.00 0.00 0.00 85 1018.1
20260501232233 48 87 0.0 0.0 0.00 0.00 0.00 84 1018.2
20260501231734 48 87 0.0 0.0 0.00 0.00 0.00 84 1018.2
20260501231230 48 87 0.0 0.0 0.00 0.00 0.00 84 1018.2
20260501230955 49 87 0.0 0.0 0.00 0.00 0.00 84 1018.2
20260501230232 49 87 0.0 0.0 0.00 0.00 0.00 84 1018.3
20260501225729 49 87 0.0 0.0 0.00 0.00 0.00 84 1018.3
20260501225237 49 87 0.0 0.0 0.00 0.00 0.00 84 1018.4
20260501224734 49 87 0.0 0.0 0.00 0.00 0.00 84 1018.4
20260501224231 49 87 0.0 0.0 0.00 0.00 0.00 84 1018.4
20260501223945 49 87 0.0 0.0 0.00 0.00 0.00 84 1018.3
20260501223218 50 87 0.0 0.0 0.00 0.00 0.00 83 1018.4
20260501222923 50 87 0.0 0.0 0.00 0.00 0.00 83 1018.4
20260501222203 50 87 0.0 0.0 0.00 0.00 0.00 83 1018.4
20260501221702 50 87 0.0 0.0 0.00 0.00 0.00 82 1018.4
20260501221202 50 87 0.0 0.0 0.00 0.00 0.00 82 1018.4
20260501220702 51 87 0.0 0.0 0.00 0.00 0.00 81 1018.4
20260501220142 51 87 0.0 0.0 0.00 0.00 0.00 81 1018.3
20260501215640 51 87 0.0 0.0 0.00 0.00 0.00 80 1018.3
20260501215133 51 87 0.0 0.0 0.00 0.00 0.00 79 1018.3
20260501214853 52 87 0.0 0.0 0.00 0.00 0.00 79 1018.3
20260501214131 52 87 0.0 0.0 0.00 0.00 0.00 78 1018.3
20260501213604 52 87 0.0 0.0 0.00 0.00 0.00 78 1018.3
20260501213103 53 87 0.0 0.0 0.00 0.00 0.00 77 1018.4
20260501212753 53 87 0.0 0.0 0.00 0.00 0.00 76 1018.4
20260501212514 53 87 0.0 0.0 0.00 0.00 0.00 75 1018.4
20260501211530 54 87 0.0 0.0 0.00 0.00 0.00 75 1018.4
20260501211241 54 87 0.0 0.0 0.00 0.00 0.00 73 1018.4
20260501210503 54 87 0.0 0.0 0.00 0.00 0.00 72 1018.3
20260501210003 55 87 0.0 0.0 0.00 0.00 0.00 70 1018.4
20260501205432 55 87 0.0 0.0 0.00 0.00 0.00 69 1018.4
20260501205415 55 87 0.0 0.0 0.00 0.00 0.00 68 1018.4
20260501204911 56 87 0.0 0.0 0.00 0.00 0.00 68 1018.4
20260501203931 56 87 0.0 0.0 0.00 0.00 0.00 68 1018.4
20260501203428 56 87 0.0 0.0 0.00 0.00 0.00 67 1018.4
20260501202929 57 87 0.0 0.0 0.00 0.00 0.00 67 1018.4
20260501202424 57 87 0.0 0.0 0.00 0.00 0.00 66 1018.3
20260501202150 57 87 0.0 0.0 0.00 0.00 0.00 65 1018.3
20260501201402 58 87 0.0 0.0 0.00 0.00 0.00 64 1018.3
20260501200901 58 87 0.0 0.0 0.00 0.00 0.00 63 1018.2
20260501200626 59 87 0.0 0.0 0.00 0.00 0.00 62 1018.1
20260501195901 59 87 0.0 0.0 0.00 0.00 0.00 64 1018.2
20260501195403 60 87 0.0 0.0 0.00 0.00 0.00 64 1018.1
20260501194830 60 87 0.0 0.0 0.00 0.00 0.00 63 1018.0
20260501194322 61 87 0.0 0.0 0.00 0.00 0.00 61 1018.0
20260501193802 62 87 0.0 0.0 0.00 0.00 0.00 60 1018.0
20260501193301 62 87 0.0 0.0 0.00 0.00 0.00 59 1017.9
20260501192801 63 87 0.0 0.0 0.00 0.00 0.00 59 1018.0
20260501192453 64 87 0.0 0.0 0.00 0.00 0.00 57 1018.0
20260501191729 64 87 0.0 0.0 0.00 0.00 0.00 54 1017.9
20260501191231 65 87 0.0 0.0 0.00 0.00 0.00 51 1017.9
20260501191213 66 87 0.0 0.0 0.00 0.00 0.00 51 1017.8
20260501190229 66 87 0.0 0.0 0.00 0.00 0.00 51 1017.8
20260501185729 67 87 0.0 1.0 0.00 0.00 0.00 49 1017.7
20260501185230 68 87 0.0 1.0 0.00 0.00 0.00 49 1017.7
20260501184728 69 87 0.0 0.0 0.00 0.00 0.00 45 1017.6
20260501184229 69 87 0.0 0.0 0.00 0.00 0.00 42 1017.6
20260501183729 70 87 0.0 0.0 0.00 0.00 0.00 39 1017.6
20260501183211 71 87 0.0 0.0 0.00 0.00 0.00 36 1017.6
20260501182703 71 87 0.0 0.0 0.00 0.00 0.00 36 1017.5
20260501182145 72 87 0.0 1.0 0.00 0.00 0.00 35 1017.6
20260501181642 73 87 0.0 0.0 0.00 0.00 0.00 33 1017.6
20260501181134 73 87 0.0 1.0 0.00 0.00 0.00 31 1017.6
20260501180630 74 87 0.0 1.0 0.00 0.00 0.00 30 1017.5
20260501180129 75 87 0.0 2.0 0.00 0.00 0.00 29 1017.5
20260501175601 76 87 0.0 2.0 0.00 0.00 0.00 27 1017.5
20260501175030 76 158 0.0 1.0 0.00 0.00 0.00 27 1017.5
20260501174530 76 112 0.0 1.0 0.00 0.00 0.00 27 1017.5
20260501174003 77 100 0.0 2.0 0.00 0.00 0.00 27 1017.5
20260501173503 77 48 0.0 2.0 0.00 0.00 0.00 26 1017.5
20260501172932 77 301 0.0 4.0 0.00 0.00 0.00 26 1017.5
20260501172429 78 236 0.0 4.0 0.00 0.00 0.00 25 1017.5
20260501171930 78 283 1.0 3.0 0.00 0.00 0.00 24 1017.5
20260501171659 78 359 1.0 1.0 0.00 0.00 0.00 24 1017.5
20260501171417 79 234 1.0 4.0 0.00 0.00 0.00 24 1017.5